Regional Weather Roundup
Issued by NWS

Home | Current Version | Previous Version | Graphics & Text | Print | Product List | Glossary On
Versions: 1 2 3 4 5 6 7 8 9 10 11 12 13 14 15 16 17 18 19 20 21 22 23 24 25 26 27 28 29 30 31 32 33 34 35 36 37 38 39 40 41 42 43 44 45 46 47 48 49 50
000
ASUS43 KLOT 181612
RWRIL

ILLINOIS REGIONAL WEATHER ROUNDUP
NATIONAL WEATHER SERVICE CHICAGO/ROMEOVILLE IL
1000 AM CST WED JAN 18 2017

NOTE: "FAIR" INDICATES FEW OR NO CLOUDS BELOW 12,000 FEET WITH NO
SIGNIFICANT WEATHER AND/OR OBSTRUCTIONS TO VISIBILITY.

* THESE STATIONS ARE NOT UNDER NWS QUALITY CONTROL. THEY ALSO MAY NOT
  REPORT WEATHER SUCH AS PRECIPITATION OR FOG.

ILZ001-002-007-009-015-016-024-181700-
NORTHWEST ILLINOIS

CITY           SKY/WX    TMP DP  RH WIND       PRES   REMARKS
MOLINE         CLOUDY    35  30  82 SW9       30.17R WCI  28
STERLING*      CLOUDY    33  31  92 VRB6      30.16R WCI  28
SAVANNA*       CLOUDY    32  30  93 SW10      30.15R WCI  24
$$

ILZ003-004-008-010-011-017-018-181700-
NORTH CENTRAL ILLINOIS

CITY           SKY/WX    TMP DP  RH WIND       PRES   REMARKS
ROCKFORD       CLOUDY    34  33  96 SW6       30.12F FOG     WCI  29
FREEPORT*      CLOUDY    32  32  99 SW8       30.12S FOG     WCI  25
ROCHELLE*      CLOUDY    33  32  99 SW6       30.14R FOG     WCI  27
DE KALB*       FOG       33  33  99 SW8       30.13F VSB 1/4 WCI  26
$$

ILZ005-006-012>014-019>023-181700-
NORTHEAST ILLINOIS

CITY           SKY/WX    TMP DP  RH WIND       PRES   REMARKS
CHICAGO-OHARE  CLOUDY    33  32  96 W12       30.13S FOG     WCI  24
CHICAGO-MIDWAY CLOUDY    32  32 100 W8        30.14F FOG     WCI  25
AURORA         FOG       34  33  96 W8        30.14F VSB 1   WCI  27
LANSING*       CLOUDY    34  34 100 W6        30.16S FOG     WCI  29
JOLIET*        CLOUDY    35  34  98 W5        30.17R FOG     WCI  31
WAUKEGAN       CLOUDY    34  32  92 SW12      30.09F FOG     WCI  25
DUPAGE AIRPORT CLOUDY    33  32  96 W6        30.11F FOG     WCI  28
KANKAKEE*      CLOUDY    34  33  97 W9        30.20R FOG     WCI  26
WHEELING       CLOUDY    34  32  92 SW7       30.13F WCI  28
MORRIS*        CLOUDY    34  33  96 W9        30.17R FOG     WCI  27
ROMEOVILLE*    CLOUDY    33  33 100 W8        30.15S FOG     WCI  26
NORTHERLY ISL    N/A     34  32  92 SW3         N/A
$$

LMZ740>746-181700-
SOUTHERN LAKE MICHIGAN

STATION/POSITION SKY/WX   TEMP    WIND        PRES    VSBY  WAVE
                          AIR SEA DIR/SP/G                  HT/PER
                          (F)     (DEG/KT/KT) (MB)    (MI)  (FT/S)
HARRISON CRIB              35     250/  9/ 10   N/A
BURNHAM HARBOR             34     260/  7/ 12   N/A
CALUMET HARBOR             34     230/  6/ 10 1020.3R
BURNS HARBOR               35     250/  6/ 11 1021.7R
$$

ILZ025>027-034>036-040-047-049-050-058-095>099-181700-
WEST-CENTRAL ILLINOIS

CITY           SKY/WX    TMP DP  RH WIND       PRES   REMARKS
QUINCY         CLOUDY    37  34  89 SW8       30.20R WCI  31
GALESBURG*     CLOUDY    32  31  95 SW9       30.19S WCI  24
MACOMB*        CLOUDY    34  33  96 SW7       30.22S FOG     WCI  28
JACKSONVILLE*  CLOUDY    36  32  85 SW9       30.24R WCI  29
PITTSFIELD*    CLOUDY    36  32  85 SW8       30.24R WCI  30
$$

ILZ028>032-037-038-041>044-048-051>054-059>061-181700-
CENTRAL ILLINOIS

CITY           SKY/WX    TMP DP  RH WIND       PRES   REMARKS
PONTIAC        CLOUDY    37  36  99 SW12      30.20S WCI  29
BLOOMINGTON    CLOUDY    35  32  88 W12       30.21R WCI  27
DECATUR        CLOUDY    37  33  85 SW10      30.23R WCI  30
PEORIA         CLOUDY    37  30  75 SW12      30.21S WCI  29
LACON*         CLOUDY    34  32  92 SW8       30.19S WCI  27
LINCOLN*       CLOUDY    37  32  82 SW5       30.23R WCI  33
SPRINGFIELD    CLOUDY    37  31  78 SW8       30.24R WCI  31
TAYLORVILLE    CLOUDY    37  32  82 SW12      30.25R WCI  30
$$

ILZ033-039-045-046-055>057-062-063-181700-
EAST-CENTRAL ILLINOIS

CITY           SKY/WX    TMP DP  RH WIND       PRES   REMARKS
CHAMPAIGN      CLOUDY    37  33  85 W9        30.22S WCI  30
RANTOUL*       CLOUDY    37  36  95 W7        30.21S FOG     WCI  32
MATTOON        CLOUDY    38  34  85 W7        30.23R WCI  33
PARIS*         CLOUDY    37  35  96 W7        30.24S WCI  31
$$

ILZ079-100>102-181700-
SOUTHWEST ILLINOIS

CITY           SKY/WX    TMP DP  RH WIND       PRES   REMARKS
ALTON          MOSUNNY   37  32  81 W9        30.25F WCI  31
BELLEVILLE     MOSUNNY   41  34  75 CALM      30.24F
CAHOKIA*       MOSUNNY   41  32  70 W3        30.25S
SPARTA*        CLOUDY    39  32  77 CALM      30.26S
$$

ILZ064>066-069>071-074>076-080>082-084>086-088>090-092>094-181700-
SOUTH-CENTRAL ILLINOIS

CITY           SKY/WX    TMP DP  RH WIND       PRES   REMARKS
CARBONDALE     CLOUDY    41  36  82 N6        30.26S
CAIRO*         CLOUDY    41  37  87 NE3       30.26S
EFFINGHAM*     CLOUDY    38  36  91 SW5       30.27R WCI  35
MARION         CLOUDY    43  37  81 N5        30.26F
MT. VERNON     CLOUDY    40  33  76 VRB3      30.26S
CENTRALIA*     CLOUDY    40  35  83 W5        30.26S
SALEM*         CLOUDY    40  33  78 W3        30.26S
METROPOLIS*    CLOUDY    41  37  83 CALM      30.27S
$$

ILZ067-068-072-073-078-083-087-091-181700-
SOUTHEAST ILLINOIS

CITY           SKY/WX    TMP DP  RH WIND       PRES   REMARKS
LAWRENCEVILLE  CLOUDY    39  36  89 W7        30.27R WCI  34
FLORA*         CLOUDY    39  35  86 W3        30.27S
FAIRFIELD*     CLOUDY    39  35  83 CALM      30.26S
HARRISBURG*    CLOUDY    41  35  80 CALM      30.27S
ROBINSON*      CLOUDY    38  35  89 NW7       30.26R WCI  32
CARMI*         CLOUDY    40  35  81 W5        30.27S
$$

ABBREVIATIONS USED IN REMARKS
   TC - TEMPERATURE IN CELSIUS
  WCI - WIND CHILL INDEX
   HX - HEAT INDEX
  VSB - VISIBILITY
$$





USA.gov is the U.S. government's official web portal to all federal, state and local government web resources and services.